Temp
7 7 7 8 8 8 8 9 9 9 11 12 13 14 14 16 16 16 15 16 16 16 16 18 18 19 19 18 18 15 16 16 19 18 19 17 17 17 16 16 16 15 14 14 14
8 8 7 8 8 8 8 8 8 9 11 12 13 14 14 15 15 15 16 16 16 16 16 17 17 18 16 18 16 15 15 17 17 17 17 17 16 16 16 15 15 14 14 14 13
9 8 8 8 8 8 8 8 8 9 11 12 13 14 14 15 15 16 16 16 15 16 16 16 17 18 18 18 17 15 16 17 17 16 16 17 16 16 15 14 13 12 13 13 12
9 9 9 9 8 8 8 8 8 9 11 12 13 14 14 14 18 15 16 15 16 16 16 17 17 18 17 18 17 17 17 17 16 16 16 16 15 15 13 15 14 12 13 12 11
10 10 10 9 9 9 9 8 8 9 11 12 13 14 14 14 16 15 15 16 16 17 16 16 17 17 18 17 17 17 17 16 15 15 15 15 14 14 13 12 12 12 12 11 10
11 10 10 10 10 9 9 9 9 10 11 12 13 14 13 16 15 15 15 16 16 16 15 16 16 16 16 17 17 16 16 16 15 15 15 15 14 14 14 11 11 12 11 10 10
11 11 10 10 10 10 10 10 10 10 11 13 13 13 13 16 15 15 15 15 15 16 15 15 15 17 16 16 16 16 15 15 14 15 15 14 13 12 13 11 11 11 10 10 9
12 11 11 10 10 10 10 10 10 11 12 12 13 13 14 14 15 15 15 15 15 15 15 15 16 15 15 15 14 16 15 15 15 14 15 15 15 16 12 10 11 10 10 9 10
12 11 11 11 10 10 10 11 11 12 12 12 13 13 14 14 14 15 15 15 15 15 15 16 16 14 15 14 13 13 15 14 15 13 14 14 14 15 11 10 11 10 10 9 9
12 12 11 11 10 10 10 11 12 12 12 12 12 13 13 14 14 14 14 15 14 15 15 15 11 12 11 12 13 15 13 14 14 15 13 12 12 13 12 10 10 10 9 9 9
12 12 12 11 10 10 10 11 11 12 11 13 14 14 13 13 14 14 14 14 14 14 14 14 13 10 13 13 16 16 16 15 15 14 13 12 12 13 12 10 10 9 9 9 9
10 11 12 11 10 10 10 9 11 11 12 11 12 13 13 14 13 13 14 14 14 14 13 13 12 14 15 14 15 16 15 14 13 14 13 12 12 14 12 11 11 10 9 9 9
9 10 11 11 10 9 9 10 11 11 12 12 12 12 13 13 13 13 13 13 14 13 12 13 16 14 15 15 15 14 12 11 14 12 12 10 11 13 13 12 11 10 10 9 8
9 9 10 10 9 9 9 11 11 11 11 13 11 12 12 12 13 13 13 14 13 13 12 13 14 14 15 15 14 15 14 13 13 12 12 11 12 10 11 10 12 10 9 9 8
7 8 8 10 10 8 9 10 11 11 14 12 10 11 11 12 11 12 13 13 13 13 13 14 13 13 14 14 14 14 13 13 13 12 11 10 8 11 10 13 13 11 9 8 7
5 7 8 9 9 8 9 10 11 11 14 10 10 10 11 11 11 11 12 13 13 13 13 13 13 13 14 12 13 12 12 11 10 10 10 9 9 11 9 14 14 11 9 8 7
4 5 7 7 8 7 8 9 10 12 12 10 9 10 11 10 10 11 11 11 10 11 11 13 13 13 13 12 13 13 12 10 11 10 13 9 9 12 13 13 13 13 9 7 6
4 5 7 7 8 6 8 8 11 11 11 10 10 10 11 11 11 10 10 10 10 12 10 11 12 11 12 13 12 11 12 12 14 13 13 10 11 14 12 12 10 12 9 6 6
4 5 7 7 7 6 8 10 12 11 12 10 11 10 9 11 10 10 9 10 11 10 13 11 13 12 12 13 13 12 12 12 10 5 9 12 12 13 12 12 11 9 7 6 5
3 4 6 7 7 6 8 10 9 12 12 11 13 11 9 9 10 10 9 11 13 11 13 14 12 12 12 12 12 12 11 11 8 11 12 14 13 14 16 12 10 9 7 6 5
3 5 6 6 5 7 8 8 9 10 12 11 12 11 11 9 9 9 10 12 12 11 12 14 13 11 12 11 11 10 11 11 11 11 14 13 16 13 15 13 11 9 8 6 5
2 4 4 5 6 4 7 8 8 11 10 11 12 12 11 9 9 9 10 11 12 11 12 13 11 9 11 10 10 11 11 11 12 12 10 12 13 14 13 13 10 10 8 7 6
2 2 4 4 6 5 5 7 7 10 9 9 10 12 12 10 11 10 10 10 11 11 12 11 7 8 12 11 10 10 10 10 10 10 10 11 15 12 12 11 11 9 7 7 5
1 2 3 3 2 5 6 7 8 7 8 9 11 10 11 11 11 10 10 9 9 11 12 12 9 11 14 14 9 9 9 9 12 9 11 11 13 15 15 12 12 10 9 6 6
1 0 2 4 4 4 5 6 7 8 6 8 9 11 10 10 10 10 9 8 9 10 10 11 9 8 10 10 10 10 10 9 10 13 13 15 14 18 16 13 12 11 9 7 6
1 1 0 0 3 2 5 5 7 8 7 7 8 10 11 11 11 10 9 9 11 8 9 9 7 6 7 9 9 8 9 8 10 12 11 12 12 15 13 14 12 11 9 8 7
0 0 0 -0 0 1 3 3 5 5 7 7 8 9 10 11 12 9 10 10 10 9 8 8 6 8 12 7 5 9 7 10 10 9 12 11 15 16 14 13 12 12 9 10 9
Height
811 809 808 806 803 801 800 799 798 795 793 790 787 785 785 783 782 781 786 784 782 779 779 781 780 777 777 779 783 785 805 812 795 798 791 790 793 791 790 793 792 791 792 793 794
810 808 807 806 805 803 801 798 796 793 791 789 788 786 784 782 783 784 786 783 780 780 780 781 780 777 782 784 787 794 810 799 793 793 793 791 794 792 793 794 794 793 792 792 794
809 808 807 805 804 802 800 798 796 793 790 788 786 785 784 785 787 782 781 779 780 780 782 780 777 777 783 784 787 794 801 794 792 792 792 793 793 791 794 796 791 793 791 791 793
807 806 805 804 802 800 799 796 794 793 791 788 786 785 785 785 788 780 781 781 781 781 780 778 778 783 787 787 786 794 791 792 792 792 793 794 793 793 793 786 783 785 787 790 792
804 804 803 802 800 798 797 794 793 791 789 786 785 783 783 785 782 781 781 780 780 779 779 779 780 781 786 788 789 792 792 793 792 793 793 793 794 794 789 784 784 786 788 789 790
801 801 800 799 798 797 795 794 792 789 787 785 784 783 783 785 780 780 780 780 779 778 779 779 781 782 787 790 792 793 793 794 793 793 793 794 793 792 779 780 784 786 787 788 789
798 798 798 797 796 794 793 791 789 788 785 783 782 781 780 778 778 779 779 779 778 778 779 781 781 783 787 792 792 794 799 797 794 793 793 794 792 788 779 781 783 785 786 787 787
795 795 795 795 794 793 791 788 786 784 783 782 781 780 778 777 777 778 779 779 780 780 780 782 783 786 790 793 798 800 803 806 791 793 792 793 789 773 776 781 783 784 785 786 785
791 792 792 792 792 791 790 787 784 781 781 781 781 780 779 777 777 778 779 780 780 782 783 784 784 792 795 804 812 809 809 805 794 793 792 795 788 773 777 781 781 782 782 783 784
787 788 789 790 790 789 788 785 781 781 781 782 781 782 779 778 777 778 780 781 782 784 786 787 796 802 807 810 820 805 809 801 800 791 794 796 785 773 774 779 776 777 779 781 782
784 784 786 786 788 788 787 784 785 784 781 776 775 776 777 778 778 780 781 782 784 787 793 792 801 814 798 799 792 792 797 797 793 791 794 792 782 765 768 772 771 773 776 778 779
781 781 782 784 785 786 787 787 785 786 783 774 775 775 775 777 780 781 782 786 787 792 794 800 802 791 791 796 796 794 797 802 796 793 794 792 777 759 761 763 760 764 771 774 777
779 777 776 780 781 783 785 785 784 784 785 773 772 773 775 777 778 780 782 785 787 793 796 797 787 788 789 794 797 798 806 810 799 798 796 802 777 760 758 759 758 761 764 768 774
778 776 774 776 783 780 781 781 783 783 790 771 774 772 773 775 778 777 779 783 787 791 795 795 787 789 791 794 796 799 796 798 798 804 811 803 804 780 765 765 756 760 763 767 771
775 774 776 772 772 775 778 780 782 785 782 769 775 772 772 776 778 780 780 781 787 789 792 789 792 791 793 791 792 795 797 798 800 808 810 810 828 777 771 757 754 759 764 769 771
776 773 772 770 770 773 773 780 783 792 771 771 773 774 776 775 778 780 781 782 783 787 788 789 788 789 790 795 793 798 801 807 815 817 821 822 822 782 784 756 751 757 763 767 771
772 773 772 771 768 771 773 780 790 773 759 771 775 773 773 778 780 779 783 787 791 802 798 791 789 788 789 795 797 797 804 824 819 825 803 815 818 773 754 754 753 753 762 765 770
772 770 767 768 767 768 771 783 769 758 758 764 767 774 772 773 776 780 784 788 784 783 796 796 796 790 787 787 792 802 799 809 806 807 799 813 799 759 753 752 755 752 759 767 771
773 766 765 762 764 767 768 764 748 752 747 759 765 771 777 769 773 777 783 780 773 777 777 789 780 787 785 785 789 798 802 798 815 854 828 790 774 749 751 750 753 759 764 767 768
773 766 763 760 760 765 763 751 754 742 739 753 746 757 771 774 773 777 780 761 757 761 763 767 785 788 787 786 791 792 796 805 824 818 808 782 777 758 740 750 753 759 763 765 766
770 765 757 757 759 760 753 751 749 743 737 745 744 752 754 764 770 770 765 754 751 758 760 762 770 794 788 789 788 798 798 798 800 802 789 793 757 743 737 741 748 753 757 760 763
769 764 758 757 757 759 753 749 744 739 742 741 739 744 750 758 761 767 759 755 747 751 759 758 774 795 785 785 784 786 787 790 787 793 807 791 769 733 736 736 744 746 751 756 759
773 767 758 758 750 753 753 747 747 740 740 744 743 740 741 751 752 753 753 749 749 748 747 756 790 800 778 786 789 786 786 784 791 794 796 795 757 739 740 740 739 744 747 750 755
777 770 761 759 759 752 745 744 741 743 741 738 733 742 741 744 744 746 749 751 752 748 746 745 769 761 757 752 775 783 782 784 776 801 779 776 752 736 734 738 735 740 743 748 751
778 778 770 756 754 755 752 747 741 738 745 740 737 731 737 747 745 742 749 755 753 751 752 750 767 772 764 766 767 767 773 782 776 758 763 742 745 713 727 733 732 733 740 746 748
779 776 773 771 764 765 751 750 745 739 742 740 738 730 725 726 733 742 746 745 737 756 754 755 774 778 781 771 773 779 771 776 770 760 760 754 736 722 723 724 728 730 735 739 740
776 776 776 776 774 773 766 766 754 752 740 739 736 732 723 718 722 733 733 730 732 740 750 756 774 768 752 779 792 770 764 754 749 756 743 755 704 711 716 722 721 722 727 727 728
Wind_Speed
7 6 7 8 10 10 11 11 11 12 12 12 11 8 8 5 2 2 2 3 3 6 4 3 3 3 2 3 3 3 4 2 4 5 3 1 2 1 1 3 1 1 4 4 2
8 8 8 8 8 9 10 12 13 13 12 10 10 9 7 6 1 0 2 2 4 5 1 2 1 3 3 2 3 4 3 5 1 2 2 1 3 3 1 3 3 1 1 4 4
8 8 9 10 9 10 11 12 12 12 12 12 10 9 7 2 0 4 4 4 3 2 2 1 2 2 3 2 1 3 4 2 2 2 1 2 2 2 3 6 7 8 6 3 2
10 10 9 10 11 11 11 12 12 13 13 12 10 7 3 2 3 1 3 3 2 2 1 2 1 3 3 3 1 0 2 2 1 2 1 3 2 4 7 5 4 7 4 5 4
14 13 12 11 12 12 12 13 13 14 14 13 9 7 2 1 3 1 3 2 1 2 3 2 2 2 3 3 2 1 1 2 2 3 4 2 6 6 8 8 6 5 5 6 5
16 15 14 13 13 13 14 14 15 15 14 11 6 4 1 3 4 1 2 1 5 3 3 4 3 2 4 2 2 1 2 3 4 3 4 3 4 2 4 6 7 6 7 7 7
18 17 16 15 14 15 15 16 16 16 14 7 5 4 1 2 1 1 3 5 6 4 3 4 3 4 2 2 1 1 4 5 5 3 4 1 7 10 4 4 8 8 6 7 7
19 18 17 16 15 15 16 17 18 16 9 4 4 3 3 1 1 1 1 3 5 6 6 4 5 5 3 1 5 1 2 3 2 6 1 2 9 4 5 8 9 8 6 7 6
19 19 18 16 15 15 16 18 19 10 4 4 2 3 5 0 0 1 1 2 4 5 5 4 4 3 3 4 4 3 4 4 6 7 2 4 8 3 5 7 9 8 8 7 7
23 19 19 17 15 14 16 19 8 4 1 1 1 3 2 1 1 2 2 3 4 3 3 5 5 3 3 3 4 4 4 5 5 2 4 6 18 16 7 10 12 9 8 7 7
24 20 18 18 14 12 14 6 3 2 1 5 3 2 3 2 3 2 2 4 2 5 3 2 3 5 9 7 1 2 3 4 4 0 3 7 16 20 10 9 13 10 8 8 8
11 18 21 19 14 10 9 2 3 1 6 6 2 1 2 4 3 2 4 4 2 3 4 3 7 4 3 4 4 3 1 4 4 2 1 6 20 19 5 6 11 11 9 8 5
12 12 19 19 13 9 8 8 3 1 3 4 4 4 3 6 3 6 8 3 3 5 6 6 1 5 4 3 4 2 4 3 3 5 1 8 9 5 2 3 2 4 5 6 8
14 14 11 17 8 7 4 6 8 1 3 5 4 4 4 6 3 2 8 3 2 8 6 5 2 5 3 4 5 3 3 3 2 5 3 4 5 6 4 7 2 4 6 7 7
15 15 14 19 8 9 4 8 7 1 3 3 2 2 3 4 5 1 2 3 4 5 5 5 6 4 3 4 5 3 3 2 2 2 3 4 3 8 4 4 3 5 6 7 7
17 15 14 18 8 8 15 11 4 3 9 3 4 5 5 2 2 3 2 2 2 3 0 2 0 4 4 3 1 6 4 5 4 2 2 2 4 6 3 3 1 2 7 8 7
18 16 10 6 3 18 23 4 3 6 2 4 4 5 3 5 4 4 6 6 6 5 5 1 3 1 3 4 4 2 4 2 4 2 4 3 2 11 5 5 4 4 8 8 7
22 15 11 14 8 25 21 3 6 5 5 3 4 5 6 6 4 6 6 5 6 3 3 7 4 8 5 4 5 5 5 4 5 2 4 3 6 6 5 3 6 2 5 7 7
23 8 10 12 16 27 3 4 8 7 5 8 3 4 3 4 5 4 7 6 9 12 7 5 2 2 2 2 3 4 4 1 6 2 3 3 7 8 4 2 1 4 6 8 8
16 6 8 10 19 18 4 9 4 4 8 3 8 6 8 7 7 7 9 6 6 12 4 5 4 1 2 3 3 3 4 3 2 2 4 5 5 6 3 7 6 6 9 8 7
5 3 2 10 22 3 5 7 5 6 3 7 7 4 5 8 8 6 6 4 6 7 10 4 4 0 2 6 8 3 3 1 2 3 4 1 6 6 6 6 10 9 9 9 9
5 3 7 16 4 2 3 5 2 5 2 2 2 4 8 9 7 7 10 5 7 9 11 5 4 4 4 0 2 3 6 6 4 5 3 1 7 3 5 4 6 8 9 8 7
3 3 4 0 3 3 2 3 2 5 6 7 5 6 4 8 4 8 7 2 2 7 12 9 2 3 3 2 2 5 5 4 3 3 6 5 5 2 4 6 5 7 8 8 9
2 3 2 1 1 3 2 3 5 2 3 3 5 4 1 3 4 5 6 3 2 3 3 5 4 6 8 4 5 5 6 7 5 3 3 7 8 7 5 7 5 6 6 8 9
1 3 3 2 2 3 2 2 4 6 3 2 3 14 11 6 4 5 3 2 2 1 2 4 5 5 4 4 4 4 5 10 12 15 9 6 15 22 11 9 9 8 6 8 10
1 1 2 3 7 8 5 2 4 3 5 4 6 11 15 14 9 8 7 6 6 3 6 3 2 3 3 3 6 5 8 10 16 15 13 13 27 13 9 4 5 8 8 10 12
1 2 1 4 2 2 3 6 7 11 4 5 4 10 11 17 10 2 1 4 7 9 6 7 6 3 4 3 2 9 14 20 10 8 15 13 29 3 4 8 9 8 10 12 13
Wind_Direction
303 308 316 326 331 336 339 342 343 345 350 348 348 348 343 337 70 97 248 302 325 344 329 310 94 96 94 76 50 113 62 256 260 146 254 119 152 252 302 149 220 49 131 165 142
294 302 310 313 316 320 326 331 336 341 346 349 345 346 346 345 66 203 275 329 359 353 332 104 58 25 54 79 32 85 123 228 217 184 237 201 192 204 217 205 231 123 184 134 131
303 300 303 305 313 318 320 326 332 336 342 343 344 345 340 320 360 219 346 359 334 312 198 148 101 85 88 111 100 126 202 226 240 218 205 220 259 227 192 248 214 199 197 162 110
294 302 308 315 312 313 320 324 331 332 338 338 334 339 330 160 199 132 342 324 264 249 178 103 59 95 113 110 94 140 234 215 251 241 250 229 304 269 203 231 196 188 156 149 175
288 294 301 310 314 319 318 322 325 329 333 337 334 341 132 191 246 325 338 338 166 147 78 107 94 107 107 115 80 160 249 237 251 256 252 273 250 245 251 237 186 178 176 176 197
282 286 294 303 309 315 316 319 322 326 330 334 337 339 196 229 143 5 7 72 58 80 69 41 88 92 94 89 135 319 276 287 254 255 260 252 266 36 276 176 197 191 199 201 209
275 278 283 293 303 311 315 317 319 323 328 336 349 359 250 213 163 51 43 39 38 59 91 58 65 70 85 56 18 61 320 305 242 221 249 75 274 234 212 159 202 216 215 214 227
274 272 275 282 292 303 313 319 318 318 321 333 346 2 240 235 264 10 41 65 51 58 86 81 72 97 68 79 24 352 44 320 195 174 233 105 273 253 175 164 215 227 228 225 239
274 270 268 275 285 296 308 317 316 309 305 313 17 56 280 9 178 157 72 71 49 54 66 71 69 84 54 91 6 12 245 228 307 201 141 185 273 244 162 192 227 228 231 226 240
266 269 268 267 277 293 306 319 316 306 140 188 39 26 353 294 129 118 92 91 72 51 44 52 50 77 55 114 225 209 229 249 251 220 221 248 259 264 229 206 228 227 227 227 225
262 264 268 263 265 283 312 334 359 330 241 209 180 147 143 119 108 95 114 110 77 56 141 51 85 216 217 204 176 154 221 254 271 170 260 244 277 276 253 226 231 223 218 219 221
277 260 264 261 247 266 296 283 270 216 308 217 257 204 148 163 111 206 158 133 136 171 113 53 234 211 203 183 219 228 220 270 280 299 254 321 288 286 260 241 234 218 210 205 175
315 277 246 254 227 236 235 242 263 224 245 274 182 168 185 152 204 200 148 152 160 164 189 175 215 133 141 156 172 227 194 228 244 317 240 313 292 334 292 296 288 200 177 157 184
323 322 268 225 199 203 227 232 207 183 355 238 208 235 136 141 243 131 183 144 200 200 164 234 237 162 166 200 153 248 185 150 55 28 273 8 279 305 300 305 274 168 152 160 161
326 322 329 223 180 162 166 167 160 160 260 111 164 122 137 163 125 289 106 87 179 186 127 236 167 161 171 204 174 228 124 93 82 72 337 355 66 271 346 321 248 190 179 177 183
328 317 320 205 189 161 144 150 111 76 238 162 127 164 128 144 132 123 121 51 124 139 175 250 226 169 191 71 57 144 77 44 51 59 348 243 115 285 242 217 304 189 192 184 184
336 312 277 290 212 161 138 131 117 218 24 201 183 166 156 154 166 165 162 170 161 130 207 116 207 182 142 96 24 91 89 331 345 10 227 147 90 247 259 239 222 209 203 185 177
328 301 272 265 239 164 141 87 200 203 202 137 112 120 177 154 196 175 144 189 233 158 134 165 251 177 179 176 175 181 171 167 209 214 284 89 235 249 200 268 237 254 181 154 168
324 307 245 236 216 164 145 194 203 192 158 143 98 132 237 206 143 145 195 208 197 182 182 157 216 101 82 123 137 185 199 165 106 42 39 231 281 293 228 228 118 148 160 179 181
322 285 257 223 195 170 225 216 245 237 127 173 180 164 174 186 160 188 183 207 204 181 158 204 104 327 143 127 65 157 164 86 352 138 257 279 275 244 264 217 215 196 206 200 191
300 256 266 201 167 197 223 209 200 248 162 156 195 158 198 176 171 192 201 267 202 179 170 154 120 296 150 203 172 141 208 132 135 163 180 277 265 210 221 198 208 213 211 201 192
333 242 350 165 178 188 198 190 222 200 83 133 65 198 182 178 170 200 210 243 184 147 166 171 117 163 215 127 139 169 195 173 146 215 243 210 274 176 215 219 211 226 207 198 190
330 296 326 99 220 206 244 232 232 201 174 175 176 228 164 186 181 198 189 36 227 165 158 175 216 83 18 14 356 202 194 175 115 91 207 151 258 4 286 290 258 232 204 189 186
317 296 291 47 66 327 175 225 209 173 260 214 181 140 74 259 260 190 216 186 342 197 124 108 151 167 190 167 131 186 189 181 160 150 184 230 303 270 270 254 258 248 210 188 192
245 268 331 325 13 259 321 331 216 212 242 234 264 207 190 211 201 211 157 124 23 120 77 151 187 160 202 139 151 181 171 186 204 214 197 232 225 252 242 235 233 218 186 187 198
259 286 329 312 326 3 185 217 331 299 181 215 223 214 208 198 197 195 160 200 180 178 168 172 176 109 315 196 216 234 205 198 222 236 253 269 277 260 245 249 261 225 199 207 208
163 281 258 323 347 35 345 7 14 349 226 270 300 243 213 226 211 357 215 146 150 149 162 151 135 121 230 49 45 285 208 209 204 205 212 222 243 273 232 233 246 258 211 215 215